Flag for Australia Weather past 2 weeks in Adelaide, South Australia, Australia

Now
59 °F

Passing clouds.


Feels Like: 57 °F
Forecast: 49 / 58 °F
Wind: 13 mph from North

Location: Adelaide Airport

Current Time: Jul 30, 2014 at 6:45:31 PM

Latest Report: Jul 30, 2014 at 6:00 PM


Visibility: N/A

Pressure: 29.95 "Hg

Humidity: 77%

Dew point: 52 °F

Location of AdelaideLocation

Historic Weather in Adelaide — Graph

°F

Adelaide temperature yesterday

Maximum temperature yesterday: 61 °F (at 11:30 AM)
Minimum temperature yesterday: 46 °F (at 2:30 AM)
Average temperature yesterday: 56 °F

Past Weeks' High & Low Weather Summary

 TemperatureHumidityPressure
High64 °F (Jul 22, 1:00 PM)100% (Jul 16, 2:00 AM)30.51 "Hg (Jul 16, 2:00 AM)
Low37 °F (Jul 18, 4:30 AM)37% (Jul 22, 12:00 PM)29.65 "Hg (Jul 24, 4:00 AM)
Average52 °F79%30.12 "Hg
* Reported Jul 15 5:30 PM — Jul 30 5:30 PM, Adelaide, Weather by CustomWeather, © 2014

Note: Actual official high and low records may vary slightly from our data, if they occured in-between our weather recording intervals... More about our weather records

Advertising

Adelaide weather history for previous 24 hours

 ConditionsComfort  
Time TempWeatherWind HumidityBarometerVisibility
5:30 PM
Jul 30
59 °FPassing clouds.16 mph77%29.95 "HgN/A
5:00 PM59 °FPartly sunny.16 mph82%29.95 "HgN/A
4:30 PM59 °FPartly sunny.18 mph82%29.95 "HgN/A
4:00 PM59 °FPartly sunny.18 mph82%29.95 "HgN/A
3:30 PM61 °FPartly sunny.20 mph72%29.95 "HgN/A
3:00 PM61 °FPartly sunny.17 mph77%29.98 "HgN/A
2:30 PM61 °FPartly sunny.17 mph77%29.98 "HgN/A
2:00 PM63 °FScattered clouds.17 mph73%29.98 "HgN/A
1:30 PM61 °FPartly sunny.16 mph77%30.01 "HgN/A
1:00 PM61 °FPartly sunny.17 mph77%30.01 "HgN/A
12:30 PM59 °FPartly sunny.18 mph82%30.01 "HgN/A
12:00 PM59 °FPartly sunny.18 mph82%30.04 "HgN/A
11:30 AM61 °FScattered clouds.14 mph77%30.04 "HgN/A
11:00 AM59 °FPassing clouds.16 mph82%30.04 "HgN/A
10:30 AM57 °FPartly sunny.15 mph88%30.07 "HgN/A
10:00 AM57 °FScattered clouds.13 mph88%30.07 "HgN/A
9:30 AM55 °FPartly sunny.17 mph94%30.07 "HgN/A
9:00 AM57 °FPartly sunny.14 mph88%30.07 "HgN/A
8:30 AM55 °FPartly sunny.15 mph94%30.07 "HgN/A
8:00 AM55 °FPartly sunny.15 mph94%30.07 "HgN/A
7:30 AM55 °FPartly sunny.15 mph94%30.07 "HgN/A
7:00 AM55 °FPartly sunny.15 mph94%30.07 "HgN/A
6:30 AM55 °FPassing clouds.15 mph94%30.04 "HgN/A
6:00 AM55 °FPassing clouds.15 mph94%30.04 "HgN/A
5:30 AM55 °FPassing clouds.16 mph94%30.04 "HgN/A
5:00 AM55 °FPassing clouds.15 mph94%30.04 "HgN/A
4:30 AM55 °FPassing clouds.13 mph94%30.04 "HgN/A
4:00 AM55 °FPassing clouds.10 mph94%30.04 "HgN/A
3:30 AM55 °FPassing clouds.12 mph94%30.04 "HgN/A
3:00 AM55 °FPassing clouds.13 mph94%30.04 "HgN/A
2:30 AM55 °FPassing clouds.15 mph94%30.04 "HgN/A
2:00 AM55 °FPassing clouds.14 mph94%30.07 "HgN/A
1:30 AM55 °FPassing clouds.15 mph94%30.07 "HgN/A
1:00 AM55 °FPassing clouds.16 mph94%30.07 "HgN/A
12:30 AM57 °FPassing clouds.16 mph88%30.07 "HgN/A
12:00 AM57 °FPassing clouds.16 mph88%30.07 "HgN/A
11:30 PM
Jul 29
57 °FPassing clouds.15 mph88%30.07 "HgN/A
11:00 PM57 °FPassing clouds.16 mph88%30.07 "HgN/A
10:30 PM57 °FPassing clouds.17 mph88%30.07 "HgN/A
10:00 PM57 °FPassing clouds.18 mph88%30.07 "HgN/A
9:30 PM57 °FClear.17 mph88%30.07 "Hg10 mi
9:00 PM57 °FClear.15 mph88%30.07 "Hg10 mi
8:30 PM57 °FPassing clouds.17 mph88%30.07 "HgN/A
8:00 PM57 °FPassing clouds.18 mph88%30.04 "HgN/A
7:30 PM57 °FClear.13 mph94%30.04 "Hg10 mi
7:00 PM57 °FPassing clouds.17 mph94%30.04 "HgN/A
6:30 PM57 °FScattered showers. Passing clouds.20 mph94%30.04 "Hg3 mi
6:00 PM59 °FPassing clouds.15 mph82%30.01 "HgN/A
Weather by CustomWeather, © 2014

See weather overviewHow to use our weather pages